| time (UTC) | temp F | wind direction | speed MPH | gust MPH | rain 1hr in | rain 24hr in | rain mn in | humidity % | barometer mb |
| 20260504070402 | 43 | 169 | 0.0 | 0.0 | 0.00 | 0.00 | 0.00 | 68 | 1018.0 |
| 20260504050328 | 42 | 179 | 0.0 | 0.0 | 0.00 | 0.00 | 0.00 | 69 | 1018.3 |
| 20260504045326 | 42 | 180 | 0.0 | 0.0 | 0.00 | 0.00 | 0.00 | 69 | 1018.4 |
| 20260504044320 | 43 | 180 | 0.0 | 0.0 | 0.00 | 0.00 | 0.00 | 68 | 1018.4 |
| 20260504043320 | 43 | 181 | 0.0 | 0.0 | 0.00 | 0.00 | 0.00 | 68 | 1018.6 |
| 20260504042320 | 43 | 188 | 0.0 | 0.0 | 0.00 | 0.00 | 0.00 | 70 | 1018.7 |
| 20260504041318 | 43 | 186 | 0.0 | 0.0 | 0.00 | 0.00 | 0.00 | 70 | 1018.4 |
| 20260504040318 | 43 | 193 | 0.0 | 0.0 | 0.00 | 0.00 | 0.00 | 71 | 1018.5 |
| 20260504035317 | 42 | 183 | 0.0 | 0.0 | 0.00 | 0.00 | 0.00 | 72 | 1018.5 |
| 20260504034312 | 41 | 186 | 0.0 | 0.0 | 0.00 | 0.00 | 0.00 | 73 | 1018.5 |
| 20260504033307 | 40 | 178 | 0.0 | 0.0 | 0.00 | 0.00 | 0.00 | 74 | 1018.2 |
| 20260504032306 | 40 | 190 | 0.0 | 0.0 | 0.00 | 0.00 | 0.00 | 75 | 1018.1 |
| 20260504031306 | 41 | 185 | 0.0 | 0.0 | 0.00 | 0.00 | 0.00 | 73 | 1018.0 |
| 20260504030306 | 41 | 186 | 0.0 | 0.0 | 0.00 | 0.00 | 0.00 | 73 | 1018.1 |
| 20260504025305 | 43 | 188 | 0.0 | 0.0 | 0.00 | 0.00 | 0.00 | 62 | 1018.0 |
| 20260504024304 | 42 | 184 | 0.0 | 0.0 | 0.00 | 0.00 | 0.00 | 69 | 1018.1 |
| 20260504023303 | 43 | 172 | 0.0 | 0.0 | 0.00 | 0.00 | 0.00 | 65 | 1018.1 |
| 20260504022301 | 44 | 185 | 0.0 | 0.0 | 0.00 | 0.00 | 0.00 | 63 | 1018.0 |
| 20260504021301 | 45 | 190 | 0.0 | 0.0 | 0.00 | 0.00 | 0.00 | 62 | 1018.0 |
| 20260504020301 | 45 | 186 | 0.0 | 0.0 | 0.00 | 0.00 | 0.00 | 56 | 1017.9 |
| 20260504015259 | 46 | 209 | 0.0 | 1.0 | 0.00 | 0.00 | 0.00 | 55 | 1017.8 |
| 20260504014257 | 46 | 165 | 0.0 | 0.0 | 0.00 | 0.00 | 0.00 | 54 | 1017.6 |
| 20260504013253 | 46 | 178 | 0.0 | 0.0 | 0.00 | 0.00 | 0.00 | 55 | 1017.6 |
| 20260504012253 | 46 | 173 | 1.0 | 1.0 | 0.00 | 0.00 | 0.00 | 52 | 1017.7 |
| 20260504011252 | 46 | 181 | 0.0 | 1.0 | 0.00 | 0.00 | 0.00 | 49 | 1017.6 |
| 20260504010249 | 46 | 186 | 0.0 | 0.0 | 0.00 | 0.00 | 0.00 | 47 | 1017.4 |
| 20260504005249 | 47 | 186 | 0.0 | 0.0 | 0.00 | 0.00 | 0.00 | 47 | 1017.2 |
| 20260504004244 | 48 | 185 | 0.0 | 0.0 | 0.00 | 0.00 | 0.00 | 46 | 1016.9 |
| 20260504003243 | 48 | 180 | 0.0 | 0.0 | 0.00 | 0.00 | 0.00 | 45 | 1016.7 |
| 20260504002242 | 50 | 186 | 0.0 | 0.0 | 0.00 | 0.00 | 0.00 | 45 | 1016.6 |
| 20260504001242 | 51 | 190 | 0.0 | 0.0 | 0.00 | 0.00 | 0.00 | 39 | 1016.5 |
| 20260504000242 | 52 | 261 | 3.0 | 3.0 | 0.00 | 0.00 | 0.00 | 36 | 1016.3 |
| 20260503235237 | 52 | 213 | 2.0 | 3.0 | 0.00 | 0.00 | 0.00 | 38 | 1016.2 |
| 20260503234233 | 53 | 202 | 2.0 | 2.0 | 0.00 | 0.00 | 0.00 | 38 | 1016.2 |
| 20260503233231 | 53 | 283 | 3.0 | 3.0 | 0.00 | 0.00 | 0.00 | 37 | 1016.1 |
| 20260503232231 | 54 | 218 | 3.0 | 3.0 | 0.00 | 0.00 | 0.00 | 37 | 1016.1 |
| 20260503231226 | 53 | 288 | 4.0 | 6.0 | 0.00 | 0.00 | 0.00 | 38 | 1016.0 |
| 20260503230225 | 54 | 264 | 7.0 | 8.0 | 0.00 | 0.00 | 0.00 | 42 | 1015.9 |
| 20260503225223 | 54 | 210 | 4.0 | 5.0 | 0.00 | 0.00 | 0.00 | 39 | 1015.9 |
| 20260503224218 | 54 | 208 | 3.0 | 3.0 | 0.00 | 0.00 | 0.00 | 40 | 1016.1 |
| 20260503223213 | 54 | 290 | 5.0 | 7.0 | 0.00 | 0.00 | 0.00 | 40 | 1016.0 |
| 20260503222213 | 54 | 173 | 3.0 | 3.0 | 0.00 | 0.00 | 0.00 | 40 | 1016.0 |
| 20260503221208 | 54 | 275 | 6.0 | 8.0 | 0.00 | 0.00 | 0.00 | 40 | 1015.9 |
| 20260503220207 | 54 | 288 | 10.0 | 11.0 | 0.00 | 0.00 | 0.00 | 40 | 1015.9 |
| 20260503215207 | 55 | 281 | 3.0 | 5.0 | 0.00 | 0.00 | 0.00 | 40 | 1016.0 |
| 20260503214207 | 54 | 276 | 4.0 | 6.0 | 0.00 | 0.00 | 0.00 | 42 | 1016.0 |
| 20260503213202 | 54 | 232 | 5.0 | 7.0 | 0.00 | 0.00 | 0.00 | 43 | 1016.1 |
| 20260503212202 | 54 | 258 | 6.0 | 7.0 | 0.00 | 0.00 | 0.00 | 41 | 1016.0 |
| 20260503211201 | 53 | 243 | 3.0 | 5.0 | 0.00 | 0.00 | 0.00 | 44 | 1015.9 |
| 20260503210200 | 53 | 265 | 5.0 | 6.0 | 0.00 | 0.00 | 0.00 | 44 | 1016.0 |
| 20260503205158 | 53 | 233 | 6.0 | 8.0 | 0.00 | 0.00 | 0.00 | 42 | 1015.7 |
| 20260503204158 | 53 | 294 | 7.0 | 10.0 | 0.00 | 0.00 | 0.00 | 42 | 1015.7 |
| 20260503203153 | 54 | 248 | 9.0 | 11.0 | 0.00 | 0.00 | 0.00 | 42 | 1015.8 |
| 20260503202153 | 53 | 94 | 4.0 | 6.0 | 0.00 | 0.00 | 0.00 | 44 | 1015.9 |
| 20260503201148 | 53 | 222 | 9.0 | 11.0 | 0.00 | 0.00 | 0.00 | 43 | 1015.8 |
| 20260503200147 | 52 | 238 | 6.0 | 7.0 | 0.00 | 0.00 | 0.00 | 43 | 1015.6 |
| 20260503195147 | 52 | 264 | 6.0 | 8.0 | 0.00 | 0.00 | 0.00 | 44 | 1015.7 |
| 20260503194145 | 52 | 246 | 5.0 | 6.0 | 0.00 | 0.00 | 0.00 | 43 | 1015.8 |
| 20260503193143 | 52 | 262 | 3.0 | 5.0 | 0.00 | 0.00 | 0.00 | 46 | 1015.8 |
| 20260503192140 | 52 | 234 | 7.0 | 9.0 | 0.00 | 0.00 | 0.00 | 44 | 1015.7 |
| 20260503191140 | 52 | 231 | 3.0 | 5.0 | 0.00 | 0.00 | 0.00 | 45 | 1015.8 |
| 20260503190140 | 52 | 237 | 5.0 | 6.0 | 0.00 | 0.00 | 0.00 | 46 | 1015.7 |
| 20260503185138 | 51 | 274 | 5.0 | 6.0 | 0.00 | 0.00 | 0.00 | 45 | 1015.7 |
| 20260503184135 | 52 | 234 | 4.0 | 6.0 | 0.00 | 0.00 | 0.00 | 45 | 1015.8 |
| 20260503183135 | 52 | 214 | 4.0 | 5.0 | 0.00 | 0.00 | 0.00 | 47 | 1015.7 |
| 20260503182132 | 51 | 227 | 3.0 | 3.0 | 0.00 | 0.00 | 0.00 | 47 | 1015.7 |
| 20260503181131 | 51 | 5 | 4.0 | 6.0 | 0.00 | 0.00 | 0.00 | 47 | 1015.9 |
| 20260503180126 | 51 | 273 | 4.0 | 6.0 | 0.00 | 0.00 | 0.00 | 48 | 1016.0 |
| 20260503175125 | 52 | 201 | 5.0 | 8.0 | 0.00 | 0.00 | 0.00 | 49 | 1016.0 |
| 20260503174125 | 53 | 185 | 4.0 | 6.0 | 0.00 | 0.00 | 0.00 | 47 | 1015.7 |
| 20260503173123 | 54 | 270 | 7.0 | 10.0 | 0.00 | 0.00 | 0.00 | 46 | 1015.9 |
| 20260503172123 | 53 | 207 | 11.0 | 16.0 | 0.00 | 0.00 | 0.00 | 45 | 1015.7 |
| 20260503171123 | 53 | 220 | 6.0 | 7.0 | 0.00 | 0.00 | 0.00 | 45 | 1015.7 |
| 20260503170122 | 52 | 295 | 8.0 | 9.0 | 0.00 | 0.00 | 0.00 | 43 | 1015.4 |
| 20260503160112 | 50 | 235 | 7.0 | 9.0 | 0.00 | 0.00 | 0.00 | 47 | 1015.7 |
| 20260503131036 | 46 | 241 | 4.0 | 5.0 | 0.00 | 0.00 | 0.00 | 69 | 1016.5 |
| 20260503080943 | 40 | 174 | 0.0 | 0.0 | 0.00 | 0.00 | 0.00 | 73 | 1017.0 |
| 20260503072933 | 41 | 176 | 0.0 | 0.0 | 0.00 | 0.00 | 0.00 | 71 | 1017.3 |
| 20260503071933 | 41 | 166 | 0.0 | 1.0 | 0.00 | 0.00 | 0.00 | 72 | 1017.2 |
| 20260503070932 | 41 | 192 | 3.0 | 3.0 | 0.00 | 0.00 | 0.00 | 70 | 1016.9 |